Simultaneous Nadir Overpasses (SNOs) Predictions

Prediction of SNOs between GOES-16 and METOP-B Satellite Orbit:

Table of predicted SNOs for the next 14.0 days since TLE Epoch: 5/25/2024
Index Date Time (GOES-16) GOES-16 Lat,Lon METOP-B Lat,Lon Distance(km) Time Diff (sec)
1 05/26/2024 14:22:25 0.06, -75.22 0.10, -75.27 7.46 80
2 05/29/2024 02:20:40 -0.05, -75.21 0.04, -74.87 39.35 80
3 05/30/2024 14:39:27 0.04, -75.24 0.95, -79.43 477.22 80
4 05/31/2024 14:21:25 0.04, -75.25 -0.16, -74.43 93.72 80
5 06/02/2024 02:40:20 -0.04, -75.26 -0.90, -79.01 428.82 80
6 06/03/2024 02:16:58 -0.04, -75.27 0.22, -74.01 142.40 80
7 06/04/2024 14:35:45 0.03, -75.30 0.76, -78.58 373.15 80
8 06/05/2024 14:17:42 0.03, -75.31 -0.36, -73.58 198.26 80
9 06/07/2024 02:36:38 -0.02, -75.33 -0.68, -78.16 323.52 80
10 06/08/2024 02:13:15 -0.02, -75.34 0.45, -73.16 248.10 80
